Regional Weather Roundup
Issued by NWS

Current Version | Previous Version | Text Only | Print | Product List | Glossary On
Versions: 1 2 3 4 5 6 7 8 9 10 11 12 13 14 15 16 17 18 19 20 21 22 23 24 25 26 27 28 29 30 31 32 33 34 35 36 37 38 39 40 41 42 43 44 45 46 47 48 49
000
ASUS46 KSEW 250010
RWRWA

WASHINGTON REGIONAL WEATHER ROUNDUP
NATIONAL WEATHER SERVICE SEATTLE WA
400 PM PST WED DEC 24 2014

NOTE:"FAIR" INDICATES FEW OR NO CLOUDS BELOW 12,000 FEET WITH NO
SIGNIFICANT WEATHER AND/OR OBSTRUCTIONS TO VISIBILITY.

WAZ505-507>509-250100-
SEATTLE, TACOMA, EVERETT, AND VICINITY

CITY           SKY/WX    TMP DP  RH WIND       PRES   REMARKS
EVERETT        LGT RAIN  42  39  89 S5        29.94R
6HR MIN TEMP:  40; 6HR MAX TEMP:  43;

BOEING FIELD   MOCLDY    47  38  71 VRB6      29.95R
6HR MIN TEMP:  44; 6HR MAX TEMP:  47;

RENTON         CLOUDY    45  40  82 SE5       29.95R
6HR MIN TEMP:  41; 6HR MAX TEMP:  46;

SEATAC AIRPORT MOCLDY    44  36  73 S5        29.94S
6HR MIN TEMP:  40; 6HR MAX TEMP:  45;

JBLM-MCCHORD   CLOUDY    44  42  93 E5        29.95R
6HR MIN TEMP:  40; 6HR MAX TEMP:  46;

PUYALLUP       NOT AVBL
JBLM-FT LEWIS  CLOUDY    44  44  98 E6        29.94R
6HR MIN TEMP:  40; 6HR MAX TEMP:  45;

TACOMA NARROWS CLOUDY    44  38  79 CALM      29.95R
6HR MIN TEMP:  40; 6HR MAX TEMP:  45;

$$

WAZ001-503-506-510-514-515-250100-
NORTH INTERIOR

CITY           SKY/WX    TMP DP  RH WIND       PRES   REMARKS
BELLINGHAM     CLOUDY    46  38  73 S3        29.92R
6HR MIN TEMP:  44; 6HR MAX TEMP:  47;

FRIDAY HARBOR  CLEAR     42  36  79 CALM      29.93R
6HR MIN TEMP:  42; 6HR MAX TEMP:  49;

EASTSOUND      CLEAR     41  39  93 CALM      29.91R
PORT ANGELES   CLEAR     45  35  68 W9        29.94R
6HR MIN TEMP:  45; 6HR MAX TEMP:  49;

NAS WHIDBEY    PTCLDY    49  38  65 W10       29.93R
6HR MIN TEMP:  46; 6HR MAX TEMP:  50;

BURLINGTON     PTCLDY    43  41  93 CALM      29.94R
$$

WAZ020-022-039-040-504-511-512-250100-
SOUTHWEST INTERIOR

CITY           SKY/WX    TMP DP  RH WIND       PRES   REMARKS
SHELTON        MOCLDY    45  40  82 NE5       29.92R
6HR MIN TEMP:  42; 6HR MAX TEMP:  49;

OLYMPIA        MOCLDY    47  38  71 W5        29.94R
6HR MIN TEMP:  40; 6HR MAX TEMP:  49;

CHEHALIS       FAIR      46  39  76 VRB6      29.95S
KELSO          CLOUDY    46  37  71 NW6       30.02R
6HR MIN TEMP:  43; 6HR MAX TEMP:  48; 6HR PCP:  0.01;

VANCOUVER      LGT RAIN  46  41  82 SW3       30.00R
6HR MIN TEMP:  42; 6HR MAX TEMP:  47; 6HR PCP:  0.03;

SCAPPOOSE, OR  CLOUDY    47  40  76 VRB3      29.99R
6HR MIN TEMP:  43; 6HR MAX TEMP:  48; 6HR PCP: TRACE;

PORTLAND, OR   LGT RAIN  46  42  86 SW6       30.00R
6HR MIN TEMP:  42; 6HR MAX TEMP:  47; 6HR PCP:  0.05;

$$

WAZ021-516-517-250100-
WASHINGTON COAST

CITY           SKY/WX    TMP DP  RH WIND       PRES   REMARKS
FORKS          MOCLDY    46  41  82 NW8       29.96R
6HR MIN TEMP:  41; 6HR MAX TEMP:  48; 6HR PCP:  0.09;

HOQUIAM        MOCLDY    46  40  79 W14       29.98R
6HR MIN TEMP:  43; 6HR MAX TEMP:  48; 6HR PCP:  0.05;

ASTORIA, OR    RAIN      45  41  86 W6        30.01R FOG
6HR MIN TEMP:  43; 6HR MAX TEMP:  49; 6HR PCP:  0.11;

$$

WAZ019-023-024-040-518-519-250100-
CASCADE MOUNTAINS AND COLUMBIA GORGE

CITY           SKY/WX    TMP DP  RH WIND       PRES   REMARKS
TROUTDALE, OR  CLOUDY    45  42  89 S9        29.99R
6HR MIN TEMP:  42; 6HR MAX TEMP:  46; 6HR PCP:  0.02;

THE DALLES, OR PTCLDY    47  30  51 W20G32    29.89R
6HR MIN TEMP:  43; 6HR MAX TEMP:  48;

$$

WAZ026-027-041>044-520-521-250100-
EAST SLOPES

CITY           SKY/WX    TMP DP  RH WIND       PRES   REMARKS
OMAK           MOCLDY    36  32  85 N8        29.76R
6HR MIN TEMP:  34; 6HR MAX TEMP:  39;

WENATCHEE      CLEAR     46  22  38 NW26      29.73R
6HR MIN TEMP:  41; 6HR MAX TEMP:  48;

ELLENSBURG     CLEAR     41  26  55 NW26G38   29.77R
6HR MIN TEMP:  41; 6HR MAX TEMP:  44;

YAKIMA         PTCLDY    47  20  34 NW12G18   29.80R
6HR MIN TEMP:  45; 6HR MAX TEMP:  48;

$$

WAZ028-034-035-250100-
COLUMBIA BASIN

CITY           SKY/WX    TMP DP  RH WIND       PRES   REMARKS
EPHRATA        MOCLDY    45  29  53 N13       29.73R
6HR MIN TEMP:  39; 6HR MAX TEMP:  46;

MOSES LAKE     CLOUDY    44  33  65 NW9       29.74R
6HR MIN TEMP:  38; 6HR MAX TEMP:  45;

PASCO          CLOUDY    43  40  89 W10       29.79R
6HR MIN TEMP:  42; 6HR MAX TEMP:  45; 6HR PCP:  0.09;

HERMISTON, OR  CLOUDY    42  38  85 SW13      29.80R
6HR MIN TEMP:  40; 6HR MAX TEMP:  42; 6HR PCP:  0.21;

$$

WAZ036>038-250100-
NORTHEAST WASHINGTON

CITY           SKY/WX    TMP DP  RH WIND       PRES   REMARKS
SPOKANE GEIGER CLOUDY    37  34  89 NW5       29.66R
6HR MIN TEMP:  33; 6HR MAX TEMP:  38;

SPOKANE FELTS  CLOUDY    39  34  82 W6        29.68R
6HR MIN TEMP:  37; 6HR MAX TEMP:  39;

FAIRCHILD AFB  CLOUDY    36  35  94 W7        29.66R
6HR MIN TEMP:  33; 6HR MAX TEMP:  37;

COEURDALENE,ID NOT AVBL
DEER PARK      CLOUDY    35  32  88 W10       29.66R WCI  27
6HR MIN TEMP:  34; 6HR MAX TEMP:  38;

$$

WAZ029>033-250100-
SOUTHEAST WASHINGTON

CITY           SKY/WX    TMP DP  RH WIND       PRES   REMARKS
PULLMAN        MIX PCPN  35  33  92 W15       29.69R WCI  25
6HR MIN TEMP:  33; 6HR MAX TEMP:  36; 6HR PCP:  0.04;

LEWISTON, ID   CLOUDY    39  35  86 NW7       29.71R
6HR MIN TEMP:  38; 6HR MAX TEMP:  42; 6HR PCP:  0.15;

WALLA WALLA    LGT RAIN  36  33  89 S15       29.78R
6HR MIN TEMP:  34; 6HR MAX TEMP:  41; 6HR PCP:  0.32;

PENDLETON, OR  CLOUDY    35  34  96 S3        29.78R FOG
6HR MIN TEMP:  33; 6HR MAX TEMP:  38; 6HR PCP:  0.32;

$$



USA.gov is the U.S. government's official web portal to all federal, state and local government web resources and services.